Change the Weather History Date:

Monday, November 5, 2012

  Actual Average Record
Temperature  
Mean Temperature 57 °F 58 °F  
Max Temperature 66 °F 71 °F 86 °F (1961)
Min Temperature 47 °F 45 °F 28 °F (1976)
Degree Days  
Heating Degree Days 8 8  
Month to date heating degree days 38 37  
Since 1 July heating degree days 118 157  
Cooling Degree Days 0 1  
Month to date cooling degree days 0 5  
Year to date cooling degree days 2505 2157  
Growing Degree Days 6 (Base 50)    
Moisture  
Dew Point 39 °F    
Average Humidity 56    
Maximum Humidity 77    
Minimum Humidity 34    
Precipitation  
Precipitation 0.00 in 0.09 in 1.53 in (1963)
Month to date precipitation 0.19 0.44  
Year to date precipitation 37.82 39.07  
Sea Level Pressure  
Sea Level Pressure 30.02 in    
Wind  
Wind Speed 5 mph (NE)    
Max Wind Speed 13 mph    
Max Gust Speed 16 mph    
Visibility 10 miles    
Events      
T = Trace of Precipitation, MM = Missing Value Source: NWS Daily Summary

Daily Weather History Graph

Daily Weather History Graph

Search for Another Location

Airport or City:

Trip Planner

Search our weather history database for the weather conditions in past years. The results will help you decide how hot, cold, wet, or windy it might be!

Date:

Astronomy

Nov. 05, 2012 Rise Set
Actual Time 6:47 AM EST 5:27 PM EST
Civil Twilight 6:21 AM EST 5:53 PM EST
Nautical Twilight 5:52 AM EST 6:23 PM EST
Astronomical Twilight 5:22 AM EST 6:52 PM EST
Moon 11:03 PM EST (11/5) 12:05 PM EST (11/5)
Length of Visible Light 11h 31m
Length of Day
10h 39m
Waning Gibbous, 63% of the Moon is Illuminated
Nov 5
Waning Gibbous
Nov 6
Last Quarter
Nov 13
New
Nov 20
First Quarter
Nov 28
Full

Hourly Weather History & Observations

Time (EST) Temp. Dew Point Humidity Pressure Visibility Wind Dir Wind Speed Gust Speed Precip Events Conditions
12:56 AM 55.9 °F 48.0 °F 75% 29.96 in 10.0 mi ENE 6.9 mph - N/A   Overcast
1:56 AM 55.0 °F 46.0 °F 72% 29.97 in 10.0 mi ENE 9.2 mph - N/A   Overcast
2:56 AM 54.0 °F 45.0 °F 72% 29.98 in 10.0 mi ENE 4.6 mph - N/A   Mostly Cloudy
3:56 AM 53.1 °F 45.0 °F 74% 29.99 in 10.0 mi NE 5.8 mph - N/A   Mostly Cloudy
4:56 AM 52.0 °F 44.1 °F 74% 30.01 in 10.0 mi NNE 6.9 mph - N/A   Overcast
5:56 AM 51.1 °F 42.1 °F 71% 30.03 in 10.0 mi NE 6.9 mph - N/A   Overcast
6:56 AM 50.0 °F 41.0 °F 71% 30.05 in 10.0 mi NNE 4.6 mph - N/A   Mostly Cloudy
7:56 AM 51.1 °F 37.9 °F 61% 30.06 in 10.0 mi NE 6.9 mph - N/A   Partly Cloudy
8:56 AM 54.0 °F 35.1 °F 49% 30.07 in 10.0 mi NNE 9.2 mph - N/A   Partly Cloudy
9:56 AM 55.9 °F 32.0 °F 40% 30.08 in 10.0 mi ENE 9.2 mph - N/A   Clear
10:56 AM 59.0 °F 33.1 °F 38% 30.07 in 10.0 mi Variable 6.9 mph - N/A   Clear
11:56 AM 60.1 °F 34.0 °F 38% 30.05 in 10.0 mi NE 8.1 mph - N/A   Clear
12:56 PM 62.1 °F 36.0 °F 38% 30.02 in 10.0 mi NW 6.9 mph - N/A   Partly Cloudy
1:56 PM 64.9 °F 37.0 °F 36% 30.01 in 10.0 mi ENE 6.9 mph - N/A   Partly Cloudy
2:56 PM 64.0 °F 36.0 °F 35% 29.99 in 10.0 mi Calm Calm - N/A   Scattered Clouds
3:56 PM 64.0 °F 35.1 °F 34% 30.00 in 10.0 mi Calm Calm - N/A   Partly Cloudy
4:56 PM 62.1 °F 34.0 °F 35% 29.99 in 10.0 mi East 3.5 mph - N/A   Partly Cloudy
5:56 PM 57.9 °F 37.9 °F 47% 30.01 in 10.0 mi Calm Calm - N/A   Scattered Clouds
6:56 PM 55.0 °F 39.0 °F 55% 30.03 in 10.0 mi Calm Calm - N/A   Scattered Clouds
7:56 PM 55.0 °F 39.9 °F 57% 30.03 in 10.0 mi Calm Calm - N/A   Mostly Cloudy
8:56 PM 54.0 °F 37.9 °F 55% 30.04 in 10.0 mi East 3.5 mph - N/A   Mostly Cloudy
9:56 PM 51.1 °F 37.9 °F 61% 30.04 in 10.0 mi East 4.6 mph - N/A   Scattered Clouds
10:56 PM 46.9 °F 39.9 °F 77% 30.04 in 10.0 mi South 3.5 mph - N/A   Partly Cloudy
11:56 PM 50.0 °F 37.9 °F 63% 30.04 in 10.0 mi East 3.5 mph - N/A   Mostly Cloudy